sat.trackr.live / text

‹ back to catalog

SEAHAWK-1

NORAD 43820 · 2018-099BQ

PAYLOAD ACTIVE UNKNOWN

§ Identity

Operator
Country
US
Launch date
2018-12-03
Launch site
AFWTR
Launch vehicle
Mass (kg)
RCS (m²)

External: N2YO · Heavens-Above · Gunter

§ Orbital elements

Epoch: 2026-09-20T02:37:57.106272Z

Period
94.48 min
Inclination
97.3863°
Eccentricity
0.0007248
Mean motion
15.24156361 rev/d
Perigee alt
488.3 km
Apogee alt
498.3 km
Semi-major
6,871.5 km
B*
2.3001e-4
RAAN
314.1879°
Arg perigee
346.9169°
Mean anomaly
13.1879°
Rev number
42,698

§ Raw data

SEAHAWK-11 43820U 18099BQ  26263.10968873  .00005529  00000+0  23001-3 0  99942 43820  97.3863 314.1879 0007248 346.9169  13.1879 15.24156361426989

JSON: /api/v1/satellites/43820 · /tle

For live sub-satellite position, see the globe view (requires WebGL).

§ Visibility from observer

Set your observer location to see the next 7 days of passes ≥ 10°. The values pass through the URL so the page stays shareable.

No JS? Fill the form by hand. The geolocation button needs JavaScript.

§ Radio — SatNOGS DB

ModeDescriptionDownlinkUplink
GMSK Mode U - GMSK 9K6 400.751 MHz

1 transmitter · refreshed weekly from db.satnogs.org